Вернуться в каталог

OPS 5113

NAVSTAR 3

АктивенНавигацияMEO
NORAD 11054·PAYLOAD·🇺🇸 United States

Запущен Oct 7, 1978 с Vandenberg Space Force Base

Loading…

Ближайшие Пролёты (ближайшие 24 часа)

TLE

СвежийSource: Space-Track

Эпоха: Sep 14, 2026, 05:17 UTC

1 11054U 78093A   26257.22014346 -.00000038  00000-0  00000-0 0  9994
2 11054  62.8604 297.5199 0102449 227.1204 130.6374  1.93504746342393

Отслеживайте OPS 5113 в реальном времени с AllMySat

Download on the App Store